SAS23KL EKCH-ESSA

Flight info

Callsign SAS23KL
Flight time N/A
Altitude 37000
Route KEMAX N851 ROXEN DCT MIKNA N851 PELUP Z226 NILUG
Aircraft A20N/M-SDE3FGIJ1RWXY/ALB1

Departure

Time 2026-04-24 14:50
Airport Copenhagen Kastrup Airport (EKCH)

Arrival

Time N/A
Airport Stockholm-Arlanda Airport (ESSA)
Time Latitude Longitude Altitude Speed Heading
2026-04-24 14:25 55.62752 12.64473 20 ft 0 kts 101°
2026-04-24 14:32 55.62754 12.64456 20 ft 2 kts 101°
2026-04-24 14:32 55.62757 12.64432 20 ft 1 kts 101°
2026-04-24 14:32 55.62758 12.64419 20 ft 1 kts 101°
2026-04-24 14:33 55.62760 12.64404 20 ft 1 kts 120°
2026-04-24 14:33 55.62765 12.64394 23 ft 1 kts 157°
2026-04-24 14:33 55.62773 12.64390 22 ft 1 kts 187°
2026-04-24 14:35 55.62770 12.64389 23 ft 3 kts 187°
2026-04-24 14:35 55.62736 12.64369 21 ft 8 kts 204°
2026-04-24 14:35 55.62695 12.64337 20 ft 6 kts 202°
2026-04-24 14:35 55.62657 12.64309 20 ft 6 kts 202°
2026-04-24 14:36 55.62614 12.64269 22 ft 7 kts 211°
2026-04-24 14:36 55.62567 12.64216 20 ft 8 kts 213°
2026-04-24 14:36 55.62520 12.64218 21 ft 7 kts 136°
2026-04-24 14:36 55.62489 12.64291 21 ft 8 kts 126°
2026-04-24 14:37 55.62454 12.64372 20 ft 9 kts 128°
2026-04-24 14:37 55.62409 12.64451 20 ft 9 kts 160°
2026-04-24 14:37 55.62346 12.64429 20 ft 10 kts 195°
2026-04-24 14:37 55.62274 12.64394 19 ft 12 kts 195°
2026-04-24 14:38 55.62189 12.64338 19 ft 14 kts 203°
2026-04-24 14:38 55.62163 12.64318 19 ft 1 kts 207°
2026-04-24 14:38 55.62072 12.64238 20 ft 13 kts 204°
2026-04-24 14:38 55.61980 12.64164 20 ft 14 kts 200°
2026-04-24 14:39 55.61936 12.64227 22 ft 7 kts 92°
2026-04-24 14:39 55.61943 12.64309 20 ft 7 kts 80°
2026-04-24 14:39 55.61952 12.64407 20 ft 9 kts 88°
2026-04-24 14:39 55.61935 12.64472 22 ft 5 kts 128°
2026-04-24 14:40 55.61905 12.64505 20 ft 6 kts 161°
2026-04-24 14:40 55.61863 12.64527 22 ft 7 kts 167°
2026-04-24 14:40 55.61806 12.64541 20 ft 9 kts 172°
2026-04-24 14:40 55.61689 12.64568 20 ft 11 kts 190°
2026-04-24 14:41 55.61625 12.64510 21 ft 11 kts 214°
2026-04-24 14:41 55.61560 12.64432 20 ft 12 kts 214°
2026-04-24 14:41 55.61496 12.64359 20 ft 9 kts 213°
2026-04-24 14:41 55.61452 12.64310 20 ft 5 kts 212°
2026-04-24 14:42 55.61420 12.64273 22 ft 6 kts 212°
2026-04-24 14:42 55.61377 12.64226 20 ft 8 kts 212°
2026-04-24 14:42 55.61290 12.64125 22 ft 37 kts 213°
2026-04-24 14:42 55.61175 12.63993 22 ft 17 kts 213°
2026-04-24 14:43 55.61083 12.63888 20 ft 15 kts 213°
2026-04-24 14:43 55.60993 12.63783 20 ft 16 kts 213°
2026-04-24 14:43 55.60896 12.63671 22 ft 17 kts 213°
2026-04-24 14:43 55.60798 12.63558 22 ft 17 kts 217°
2026-04-24 14:44 55.60717 12.63458 22 ft 12 kts 213°
2026-04-24 14:44 55.60679 12.63414 21 ft 4 kts 212°
2026-04-24 14:44 55.60649 12.63379 21 ft 6 kts 214°
2026-04-24 14:44 55.60613 12.63330 20 ft 7 kts 223°
2026-04-24 14:45 55.60575 12.63269 20 ft 7 kts 220°
2026-04-24 14:45 55.60534 12.63207 21 ft 7 kts 220°
2026-04-24 14:45 55.60495 12.63148 21 ft 6 kts 220°
2026-04-24 14:45 55.60463 12.63111 20 ft 6 kts 206°
2026-04-24 14:46 55.60440 12.63107 20 ft 4 kts 179°
2026-04-24 14:46 55.60424 12.63116 20 ft 2 kts 153°
2026-04-24 14:46 55.60407 12.63139 20 ft 3 kts 137°
2026-04-24 14:46 55.60390 12.63172 20 ft 4 kts 133°
2026-04-24 14:47 55.60387 12.63178 20 ft 0 kts 133°
2026-04-24 14:47 55.60350 12.63253 21 ft 3 kts 124°
2026-04-24 14:47 55.60341 12.63278 22 ft 2 kts 121°
2026-04-24 14:48 55.60337 12.63292 22 ft 1 kts 116°
2026-04-24 14:48 55.60335 12.63303 24 ft 1 kts 109°
2026-04-24 14:48 55.60349 12.63386 24 ft 14 kts 34°
2026-04-24 14:48 55.60397 12.63435 22 ft 11 kts 49°
2026-04-24 14:49 55.60401 12.63443 21 ft 0 kts 44°
2026-04-24 14:49 55.60404 12.63447 21 ft 1 kts 44°
2026-04-24 14:49 55.60412 12.63462 21 ft 9 kts 44°
2026-04-24 14:49 55.60649 12.63828 22 ft 93 kts 40°
2026-04-24 14:50 55.61366 12.64946 239 ft 164 kts 37°
2026-04-24 14:50 55.62289 12.66352 979 ft 187 kts 35°
2026-04-24 14:50 55.63298 12.67997 1873 ft 205 kts 39°
2026-04-24 14:50 55.64345 12.69827 2855 ft 218 kts 38°
2026-04-24 14:51 55.65426 12.71801 3840 ft 230 kts 40°
2026-04-24 14:51 55.66566 12.73925 4862 ft 245 kts 37°
2026-04-24 14:51 55.67932 12.75776 5814 ft 253 kts 30°